METAR

Ronaldsway Weather

EGNS 302350Z 14010KT 4000 -DZ OVC005 09/09 Q1026

 

TAF EGNS 290800Z 290800 2909/2918 16006KT 9999 FEW020 SCT045

 

 

I know some visitors found the previous airfield selection useful but this website has been updated to use a WordPress framework and the previous version is not compatible with either the latest version of  PHP or WordPress itself. This plugin is under development and airfield selection may become a feature in the future. In the meantime if anyone has a locator that they use regularly you can email me and request its addition here.